Find Starlink 6109

NORAD ID: 56094 Int'l Des: 2023-046 Owner: SPXS Country: US Constellation: starlink operational
LEOCIRCULAR

Live Position

Loading 3D Globe...

About Starlink 6109

Description loading...

Upcoming Passes

Passes for default location (London). Set your location on the main map for personalized predictions.

Altitude History

Loading altitude history...

Two-Line Element Set

1 56094U 23046B 26139.63370008 -.00001225 00000-0 -35008-4 0 9999
2 56094 43.0024 120.7184 0001076 277.1542 82.9187 15.27565888172880
Epoch: May 19, 2026 • Age: 16 hours

Current Status

Altitude 486.9 km
Velocity 7.63 km/s
Sub-Earth Point 42.82°N, 148.84°W
Launch Date Mar 29, 2023
Age 3.1 years
Type internet

Technical Details

Classification Payload
Mass 305.00 kg
Dry Mass 290.00 kg
Total Mass 305.00 kg
Length 0.20 m
Diameter 2.80 m
Span 9.00 m
Shape Box + pan
Manufacturer SPXS
Bus Type Starlink
Phase Status In Orbit
Owner/State SPXS/US

Most Searched